Regional Weather Roundup
Issued by NWS

Home | Current Version | Previous Version | Text Only | Print | Product List | Glossary Off
Versions: 1 2 3 4 5 6 7 8 9 10 11 12 13 14 15 16 17 18 19 20 21 22 23 24 25 26 27

000
ASUS45 KTFX 211910
RWRMT
MONTANA REGIONAL WEATHER ROUNDUP
NATIONAL WEATHER SERVICE GREAT FALLS MT
1200 PM MST TUE NOV 21 2017

NOTE: "FAIR" INDICATES FEW OR NO CLOUDS BELOW 12000 FEET WITH NO
SIGNIFICANT WEATHER AND/OR OBSTRUCTIONS TO VISIBILITY.

MTZ001>007-043-212000-
WEST OF THE DIVIDE

CITY           SKY/WX    TMP DP  RH WIND       PRES   REMARKS
KALISPELL      FAIR      43  38  82 S3        30.18F
MISSOULA       CLOUDY    33  33 100 N3        30.24S
BUTTE          FAIR      32  25  75 CALM      30.22F
MULLAN PASS    CLOUDY    30  27  88 S8        30.15S WCI  22
ANACONDA         N/A     39  28  65 S14G20    30.19F WCI  31
DEER LODGE       N/A     34  27  75 CALM      30.24F
EUREKA           N/A     45  36  70 MISG      30.18F
HAMILTON         N/A     36  30  80 NW6         N/A  WCI  31
LIBBY            N/A     34  34 100 CALM      30.20F
RONAN            N/A     44  35  70 SW6       30.22F
$$

MTZ008-052>055-212000-
SOUTHWEST MONTANA

CITY           SKY/WX    TMP DP  RH WIND       PRES   REMARKS
BOZEMAN        FAIR      35  30  82 W3        30.23F
DILLON         FAIR      41  32  70 SW13      30.24F
W YELLOWSTONE  CLOUDY    34  32  93 SW7G14    30.33R WCI  28
ENNIS          CLOUDY    45  32  61 S14G20    30.29F
$$

MTZ009-010-012-014-046-048-049-054-212000-
EAST SLOPES AND CENTRAL MONTANA

CITY           SKY/WX    TMP DP  RH WIND       PRES   REMARKS
CUT BANK       FAIR      21  18  88 SE6       30.11F WCI  13
GREAT FALLS    FAIR      34  25  69 SW6       30.12F WCI  29
MALMSTROM AFB  SUNNY     24  21  87 E3          N/A
HELENA         FAIR      38  31  76 NW3       30.21F
CHOTEAU          N/A     39  28  65 S6        30.11F
RAYNESFORD     FAIR      43  24  47 SW12      30.12F
$$

MTZ011-013-016-021-045-047-050-051-212000-
NORTH CENTRAL MONTANA

CITY           SKY/WX    TMP DP  RH WIND       PRES   REMARKS
HAVRE          FAIR      25  11  55 NE13      30.19F WCI  14
LEWISTOWN      FAIR      36  27  69 E3        30.14F
N BAR RANCH    FAIR      34  27  75 SE5       30.17F
CHINOOK          N/A     19   9  63 E15       30.21F WCI   5
GEYSER         FAIR      26  20  77 E3        30.13F
STANFORD       FAIR      34  29  80 N7        30.13S WCI  28
$$

MTZ017>020-022>027-061-062-212000-
NORTHEAST MONTANA

CITY           SKY/WX    TMP DP  RH WIND       PRES   REMARKS
GLASGOW        CLOUDY    11  -2  56 SE5       30.33F
GLENDIVE       FAIR      19   4  51 W7        30.36F WCI  10
JORDAN           N/A     24   9  52 SE10      30.28F WCI  14
SIDNEY         FAIR      16   1  51 VRB5      30.40F
WOLF POINT     FAIR      14  -2  49 CALM      30.38F
MALTA          CLOUDY    18   3  53 E12       30.30F WCI   5
PLENTYWOOD       N/A      7  -2  66 W7        30.36F WCI  -5
POPLAR           N/A     12  -2  52 CALM      30.39F
$$

MTZ028>42-056>058-212000-
SOUTHCENTRAL AND SOUTHEAST MONTANA

CITY           SKY/WX    TMP DP  RH WIND       PRES   REMARKS
BAKER          FAIR      18   6  59 W13       30.33F WCI   5
BILLINGS       FAIR      31  28  89 SW9       30.24F WCI  23
LIVINGSTON     FAIR      38  34  85 NW14      30.19F WCI  30
MILES CITY     FAIR      23  11  60 VRB3      30.34F
BIG TIMBER     CLOUDY    30  30 100 SE9       30.22F FOG     WCI  22
FORSYTH          N/A     27  19  74 E8        30.30F WCI  18
LAUREL           N/A     32  28  86 SW8       30.24F WCI  25
ROUNDUP          N/A     33  23  67 S14       30.11F WCI  23
$$

REGIONAL REPORTS...DAKOTAS

CITY           SKY/WX    TMP DP  RH WIND       PRES   REMARKS
WILLISTON      FAIR      13  -1  54 W12       30.40F WCI  -1
MINOT          FAIR      15   4  61 W14       30.34S WCI   0
DICKINSON      FAIR      18   1  47 W15       30.30F WCI   4
BEACH          FAIR      14  -2  48 W13       30.37S WCI   0
CROSBY         PTSUNNY    7   0  72 W17       30.39S WCI -12
TIOGA          CLOUDY     7   0  72 W16       30.37R WCI -11
WATFORD CITY   FAIR      12   0  57 NW14      30.38F WCI  -3
BISMARCK       CLOUDY    22   7  52 NW12      30.38F WCI  10
GRAND FORKS    PTSUNNY   20  11  68 NW17G28   30.31R WCI   5
FARGO          PTSUNNY   23  10  57 NW21G28   30.31R WCI   8
BUFFALO SD       N/A     27   7  42 W13       30.24F WCI  16
RAPID CITY     FAIR      31  20  63 VRB5      30.32F
$$

REGIONAL REPORTS...WYOMING/IDAHO/WASHINGTON

CITY           SKY/WX    TMP DP  RH WIND       PRES   REMARKS
GILLETTE       FAIR      35  24  64 W10       30.26F WCI  27
SHERIDAN       FAIR      34  30  85 VRB3      30.24F
BUFFALO WY     FAIR      36  27  69 SE15      30.23F WCI  27
CODY           FAIR      45  31  58 SE8       30.22F
YELLOWSTONE LA   N/A     34  29  82 MISG      30.33S
IDAHO FALLS    CLOUDY    37  37 100 VRB3      30.37R FOG
SALMON         CLOUDY    37  36  96 CALM      30.32F
BOISE          CLOUDY    56  46  69 SE9       30.25F
SPOKANE        LGT RAIN  36  36 100 NE5       30.18R FOG
$$

REGIONAL REPORTS...ALBERTA

CITY           SKY/WX    TMP DP  RH WIND       PRES   REMARKS
EDMONTON       CLOUDY     5  -4  66 S8        30.17F WCI  -8
CALGARY        PTSUNNY   12   9  85 S12       30.05F HAZE    WCI  -2
LETHBRIDGE     PTSUNNY   21  14  73 NW3       30.09F
MEDICINE HAT   MOSUNNY   16   7  67 NE9       30.18F WCI   4
$$

REGIONAL REPORTS...SASKATCHEWAN

CITY           SKY/WX    TMP DP  RH WIND       PRES   REMARKS
SWIFT CURRENT  CLOUDY     5  -2  72 S5        30.23F
REGINA         PTSUNNY    3  -2  78 W9        30.35F WCI -11
SASKATOON      PTSUNNY    5  -2  72 W6        30.34F WCI  -6
$$




USA.gov is the U.S. government's official web portal to all federal, state and local government web resources and services.